Location: Wiesbaden
(50.0830°N, 8.2500°E)
Time: 19:40:12
(UTC+02:00)

ISS - Pass Details

Date: 19 July 2019
Orbit: 409 x 418 km, 51.6° (Epoch: 20 July)

Event Time Altitude Azimuth Distance (km) Brightness Sun altitude
Rises 23:49:08 0° 259° (W) 2,350 0.2 -15.5°
Reaches altitude 10° 23:51:13 10° 261° (W) 1,487 -0.8 -15.6°
Maximum altitude 23:54:34 78° 347° (NNW) 428 -3.7 -15.9°
Drops below altitude 10° 23:57:54 10° 75° (ENE) 1,485 -1.1 -16.1°
Sets 23:59:59 0° 77° (ENE) 2,346 -0.1 -16.2°
